Location: Altoona
(40.5167°N, 78.4000°W)
Time: 19:47:39
(UTC-04:00)

Daily predictions for brighter satellites

Satellite Brightness Start Highest point End
(mag) Time Altitude Azimuth Time Altitude Azimuth Time Altitude Azimuth
Okean 2 3.9 20:16:55 10° N 20:20:54 42° ENE 20:24:50 10° SSE
Cosmos 1975 4.5 20:18:59 10° SE 20:21:33 16° E 20:24:08 10° NE
Cosmos 968 Rocket 3.8 20:17:53 10° NNW 20:23:01 71° WSW 20:28:05 10° S
Meteor 2-4 Rocket 3.8 20:17:16 10° N 20:23:08 75° E 20:29:03 10° SSE
NOSS 2-1 (D) 3.4 20:19:47 10° SSW 20:23:37 89° SSE 20:27:58 10° NE
Cosmos 1697 Rocket 4.3 20:21:17 10° SE 20:24:00 14° E 20:26:42 10° ENE
Helios 1A 3.5 20:20:11 10° S 20:24:18 66° WSW 20:28:30 10° NNW
NOSS 2-1 (C) 3.4 20:20:49 10° SSW 20:24:40 89° ESE 20:29:00 10° NE
Cosmos 2123 Rocket 4.3 20:19:35 10° N 20:25:29 45° ENE 20:31:20 10° SSE
Cosmos 2278 4.1 20:20:28 10° S 20:25:45 42° ESE 20:31:03 10° NE
Lacrosse 5 rocket 2.6 20:27:16 10° NNW 20:30:25 25° NE 20:33:28 10° E
H-2A R/B 4.1 20:31:06 10° ENE 20:31:36 10° ENE 20:32:07 10° NE
Cosmos 1315 Rocket 3.7 20:27:56 10° SSW 20:31:52 56° WNW 20:35:52 10° N
ERS-1 Rocket 4.2 20:28:26 10° ESE 20:32:26 24° ENE 20:36:26 10° NNE
Meteor 2-14 Rocket 4.5 20:26:36 10° S 20:32:40 67° E 20:38:46 10° NNE
ALOS 2.3 20:28:07 10° SSE 20:32:44 66° ENE 20:37:23 10° N
Cosmos 1892 Rocket 3.6 20:29:06 10° N 20:33:34 71° E 20:38:02 10° SSE
Cosmos 1025 Rocket 3.5 20:30:32 10° NNW 20:34:53 68° W 20:39:11 10° S
Cosmos 1455 Rocket 3.1 20:34:26 10° S 20:38:39 56° E 20:42:55 10° NNE
Cosmos 2369 3.9 20:33:36 10° S 20:39:00 48° ESE 20:44:28 10° NE
H-2A R/B 2.8 20:35:13 10° SSE 20:39:00 60° ENE 20:42:53 10° N
Resurs 1-3 4.2 20:34:46 10° S 20:39:06 61° W 20:43:27 10° NNW
NOSS 2-1 (E) 3.8 20:36:48 10° SW 20:40:40 68° NW 20:45:09 10° NNE
Cosmos 1461 3.3 20:37:31 10° NNW 20:41:25 42° NE 20:44:43 13° ESE
Meteor 1-23 Rocket 4.4 20:37:14 10° NNW 20:42:53 81° W 20:48:35 10° S
Cosmos 1602 Rocket 4.4 20:39:06 10° NNE 20:43:06 31° ENE 20:46:54 11° SE
Cosmos 1980 Rocket 3.8 20:45:16 12° ESE 20:46:08 12° E 20:48:24 10° ENE
Centaur D-1A AC-32 4.2 20:51:08 10° SSW 20:52:05 11° SSW 20:52:57 10° S
Cosmos 1939 Rocket 4.0 20:51:41 15° ESE 20:54:12 27° ENE 20:57:43 10° NNE
CZ-2D R/B 3.4 20:51:57 10° S 20:55:47 75° WSW 20:59:41 10° NNW
Resurs 01 Rocket 3.6 20:52:23 10° SSW 20:56:16 30° W 21:00:11 10° NW
Lacrosse 5 3.4 20:52:22 10° NNW 20:56:32 25° NNE 21:00:15 12° E
Cosmos 1934 Rocket 4.1 20:50:26 10° S 20:56:33 84° W 21:02:48 10° N
Hubble Space Telescope 3.1 20:59:29 10° SW 21:01:01 12° SSW 21:02:32 10° S
SPOT 5 4.2 21:02:06 17° ESE 21:04:24 23° ENE 21:08:13 10° NNE
Cosmos 220 Rocket 4.3 21:03:25 10° N 21:07:30 45° ENE 21:09:49 23° SE
Cosmos 1346 Rocket 3.3 21:06:55 10° NNW 21:10:48 60° W 21:14:43 10° S
Cosmos 2227 Rocket 2.2 21:07:46 10° NNW 21:13:28 88° WSW 21:18:21 14° SSE
USA 186 2.7 21:10:44 10° S 21:13:45 45° W 21:16:38 10° NNW
FENGYUN 3A 4.4 21:09:06 10° S 21:14:19 54° W 21:19:35 10° NNW
Tiangong 1 1.6 21:11:49 10° W 21:14:52 53° N 21:16:25 24° ENE
OTV 4 1.2 21:13:20 10° W 21:16:08 38° SSW 21:16:45 33° SSE
Cosmos 1656 3.7 21:14:47 10° S 21:20:18 59° ESE 21:25:47 10° NNE
Cosmos 1500 3.3 21:18:30 24° SSE 21:20:26 47° E 21:24:05 10° NNE
NOSS 3-4 (A) 4.1 21:14:24 10° NW 21:21:24 66° WSW 21:28:02 13° SSE
RESURS DK-1 3.7 21:18:04 10° N 21:21:26 23° NE 21:22:21 22° ENE
NOSS 3-4 (C) 4.1 21:14:31 10° NW 21:21:31 66° WSW 21:28:06 14° SSE
BREEZE-M TANK 3.5 21:10:15 10° WNW 21:22:42 72° NNE 21:24:54 26° E
Cosmos 2298 Rocket 4.2 21:20:31 10° N 21:25:46 57° ENE 21:28:25 28° SE
Cosmos 2082 3.8 21:21:17 10° NNW 21:26:53 74° WSW 21:31:16 17° SSE
CZ-4 DEB 2.7 21:26:40 31° S 21:28:03 78° W 21:31:11 10° NNW
Cosmos 2297 Rocket 2.1 21:23:27 10° NNW 21:29:09 89° ENE 21:32:48 23° SSE
Cosmos 1340 4.0 21:32:08 10° NNE 21:34:56 25° ENE 21:34:56 25° ENE
Envisat 2.9 21:34:13 27° SSE 21:37:03 75° ENE 21:42:08 10° N
Cosmos 2173 Rocket 4.1 21:32:57 16° SSE 21:38:01 57° E 21:44:13 10° NNE
H-2A R/B 3.9 21:39:13 14° ENE 21:39:22 14° ENE 21:41:49 10° NNE
Milstar 3 Cent rocket 4.4 21:19:03 10° WSW 21:39:37 50° S 21:45:56 27° SE
Cosmos 1937 Rocket 3.8 21:36:57 10° N 21:42:06 51° ENE 21:43:40 38° ESE
Cosmos 1515 3.8 21:39:36 10° NNW 21:43:28 73° W 21:44:57 35° S
Terra 4.0 21:44:43 12° ENE 21:44:43 12° ENE 21:46:11 10° NE
ASTEX 1 3.8 21:41:09 10° NNE 21:45:54 42° E 21:46:26 41° ESE
OAO 2 Rocket 3.7 21:43:07 10° WSW 21:47:55 43° S 21:48:33 41° SSE
Cosmos 2100 Rocket 3.9 21:42:27 12° S 21:48:22 75° E 21:54:36 10° N
YAOGAN 6 3.4 21:49:35 38° NE 21:49:35 38° NE 21:52:34 10° N
Cosmos 2061 Rocket 3.9 21:44:13 17° S 21:49:11 69° E 21:55:24 10° NNE
Cosmos 2150 Rocket 3.8 21:47:28 10° NNW 21:52:39 85° ENE 21:54:22 43° SSE
Iridium 4 Rocket 4.1 21:47:47 10° NNW 21:52:47 53° W 21:56:49 13° SSW
Cosmos 1743 2.7 21:53:16 66° E 21:53:16 66° E 21:57:02 10° NNE
Cosmos 1825 Rocket 3.5 21:50:39 10° N 21:55:02 61° E 21:55:21 59° ESE
MetOp-A 4.1 21:55:02 45° SE 21:56:32 65° ENE 22:01:51 10° N
Cosmos 972 Rocket 4.4 21:50:47 10° NNW 21:56:43 78° ENE 21:59:20 38° SSE
Cosmos 1975 4.5 21:54:00 10° SW 21:57:45 35° WNW 22:01:33 10° N
SPOT 1/Viking Rocket 4.0 21:57:13 41° E 21:57:50 43° ENE 22:02:45 10° N
Cosmos 990 Rocket 4.2 21:52:50 10° N 21:57:58 52° ENE 21:58:46 48° E
DELTA 2 R/B (1) 3.6 21:53:43 10° W 21:59:13 64° SSW 22:00:24 51° SE
Cosmos 1066 Rocket 4.3 21:54:45 10° NNW 22:00:25 75° W 22:03:26 29° S
Cosmos 1953 Rocket 3.8 21:59:35 10° N 22:03:44 55° ENE 22:03:44 55° ENE
CZ-4B R/B 4.5 22:00:19 10° NNE 22:03:04 28° ENE 22:03:04 28° ENE
H-2A R/B 2.0 22:06:31 61° SSW 22:07:01 70° WSW 22:11:09 10° NNW
Cosmos 1697 Rocket 2.8 22:01:33 10° SSW 22:07:12 77° WNW 22:12:53 10° NNE
Lacrosse 5 rocket 2.2 22:06:18 10° WNW 22:09:24 36° WSW 22:09:24 36° WSW
ERS-1 Rocket 4.1 22:07:45 18° SSW 22:10:59 39° W 22:15:41 10° NNW
SL-16 R/B 4.2 22:15:31 14° NE 22:15:31 14° NE 22:16:31 10° NE
NOAA 11 4.2 22:15:11 57° E 22:15:39 59° ENE 22:21:03 10° N
deb Chang Zheng 4 4.2 22:11:51 10° N 22:16:14 58° WNW 22:18:17 29° SW
Cosmos 1898 Rocket 4.0 22:12:23 10° NNW 22:17:34 54° WSW 22:19:08 39° SSW
Cosmos 1758 Rocket 3.9 22:18:44 10° N 22:22:20 58° NNE 22:22:20 58° NNE
Cosmos 1725 Rocket 3.9 22:22:45 60° ESE 22:23:17 63° E 22:29:26 10° NNE
Cosmos 1125 Rocket 4.4 22:18:57 10° N 22:23:14 35° NE 22:23:14 35° NE
Cosmos 1763 Rocket 3.3 22:24:17 78° ENE 22:24:17 78° ENE 22:29:10 10° NNE
Cosmos 1459 Rocket 4.4 22:21:24 16° SSW 22:26:14 58° W 22:32:16 10° N
Cosmos 1980 Rocket 2.1 22:26:52 36° SSW 22:29:17 84° WNW 22:35:01 10° NNE
Meteor 1-15 Rocket 4.3 22:30:17 62° E 22:30:17 62° E 22:35:50 10° NNE
ARGOS 3.0 22:30:52 79° E 22:30:58 80° ENE 22:36:23 10° N
Lacrosse 5 2.0 22:34:54 10° NW 22:39:26 68° WNW 22:39:26 68° WNW
SPOT 5 3.9 22:41:21 38° SW 22:42:13 41° W 22:46:51 10° NNW
Cosmos 2058 Rocket 3.9 22:44:37 48° NNW 22:44:37 48° NNW 22:47:58 10° N
Cosmos 841 Rocket 3.6 22:45:04 73° NW 22:45:04 73° NW 22:50:00 10° NNE
USA 215 3.4 22:44:53 55° E 22:45:58 63° NE 22:52:26 10° NW
BREEZE-M DEB (TANK) 4.0 22:35:26 10° SW 22:48:51 76° SE 22:49:08 74° ESE
Cosmos 2233 Rocket 4.2 22:51:57 56° NE 22:51:57 56° NE 22:57:09 10° NNE
Cosmos 2263 Rocket 3.3 22:54:10 10° N 22:58:16 33° NE 22:58:16 33° NE
RESURS DK-1 4.4 22:55:53 10° NW 22:58:17 25° WNW 22:58:17 25° WNW
Cosmos 2322 Rocket 3.4 23:03:22 32° NE 23:03:22 32° NE 23:06:18 10° NNE
H-2A R/B 3.0 23:19:52 42° NNW 23:19:52 42° NNW 23:23:10 10° NNW
BREEZE-M DEB (TANK) 3.7 23:03:35 10° WNW 23:18:45 74° NNE 23:18:46 74° NNE
Terra 3.3 23:23:37 34° NNW 23:23:37 34° NNW 23:26:20 10° NNW
